Weather History for KSLO - November, 2012

Change the Weather History Date:

Thursday, November 22, 2012

  Actual Average Record
Temperature  
Mean Temperature 54 °F -  
Max Temperature 64 °F 51 °F 70 °F (1973)
Min Temperature 43 °F 31 °F 9 °F (1964)
Degree Days  
Heating Degree Days 12    
Growing Degree Days 4 (Base 50)    
Moisture  
Dew Point 44 °F    
Average Humidity 69    
Maximum Humidity 93    
Minimum Humidity 40    
Precipitation  
Precipitation 0.14 in - - ()
Sea Level Pressure  
Sea Level Pressure 30.08 in    
Wind  
Wind Speed 8 mph (South)    
Max Wind Speed 21 mph    
Max Gust Speed 25 mph    
Visibility 7 miles    
Events Rain , Thunderstorm    
Averages and records for this station are not official NWS values.
T = Trace of Precipitation, MM = Missing Value Source: NWS Daily Summary

Daily Weather History Graph

Daily Weather History Graph

Search for Another Location

Airport or City:

Trip Planner

Search our weather history database for the weather conditions in past years. The results will help you decide how hot, cold, wet, or windy it might be!

Date:

Astronomy

Nov. 22, 2012 Rise Set
Actual Time 6:46 AM CST 4:37 PM CST
Civil Twilight 6:17 AM CST 5:06 PM CST
Nautical Twilight 5:44 AM CST 5:39 PM CST
Astronomical Twilight 5:12 AM CST 6:10 PM CST
Moon 1:20 PM CST (11/22) 1:09 AM CST (11/22)
Length of Visible Light 10h 49m
Length of Day
9h 51m
Waxing Gibbous, 71% of the Moon is Illuminated
Nov 22
Waxing Gibbous
Nov 28
Full
Dec 6
Last Quarter
Dec 13
New
Dec 19
First Quarter

Hourly Weather History & Observations

Time (CST) Temp. Windchill Dew Point Humidity Pressure Visibility Wind Dir Wind Speed Gust Speed Precip Events Conditions
12:15 AM 43.9 °F - 41.7 °F 92% 30.18 in 2.0 mi Calm Calm - N/A   Clear
12:35 AM 43.2 °F - 41.2 °F 93% 30.18 in 1.8 mi Calm Calm - N/A   Mist
12:55 AM 46.6 °F - 44.4 °F 92% 30.18 in 3.0 mi SSE 3.5 mph - N/A   Clear
1:15 AM 48.4 °F - 44.1 °F 85% 30.18 in 4.0 mi SSE 4.6 mph - N/A   Clear
1:35 AM 46.6 °F - 43.0 °F 87% 30.17 in 4.0 mi SSE 4.6 mph - N/A   Clear
1:55 AM 47.1 °F - 43.3 °F 87% 30.17 in 4.0 mi South 3.5 mph - N/A   Clear
2:15 AM 48.2 °F - 43.2 °F 83% 30.17 in 5.0 mi SSE 4.6 mph - N/A   Haze
2:35 AM 47.5 °F - 42.8 °F 84% 30.17 in 5.0 mi SSE 4.6 mph - N/A   Haze
2:55 AM 47.3 °F - 42.8 °F 84% 30.16 in 5.0 mi South 4.6 mph - N/A   Clear
3:15 AM 47.3 °F - 42.8 °F 84% 30.16 in 5.0 mi South 4.6 mph - N/A   Clear
3:35 AM 47.5 °F - 42.6 °F 83% 30.16 in 5.0 mi South 4.6 mph - N/A   Haze
3:55 AM 47.1 °F - 42.6 °F 84% 30.16 in 4.0 mi SSE 3.5 mph - N/A   Clear
4:15 AM 47.1 °F - 42.8 °F 85% 30.15 in 4.0 mi SSE 3.5 mph - N/A   Clear
4:35 AM 46.6 °F - 42.8 °F 87% 30.15 in 4.0 mi SSE 3.5 mph - N/A   Clear
4:55 AM 46.4 °F 43.5 °F 42.8 °F 87% 30.15 in 4.0 mi SSE 5.8 mph - N/A   Clear
5:15 AM 46.4 °F 44.3 °F 42.8 °F 87% 30.15 in 3.0 mi SSE 4.6 mph - N/A   Clear
5:35 AM 46.4 °F 43.5 °F 42.8 °F 87% 30.14 in 3.0 mi SSE 5.8 mph - N/A   Clear
5:55 AM 46.4 °F 42.9 °F 42.8 °F 87% 30.14 in 3.0 mi South 6.9 mph - N/A   Clear
6:15 AM 46.4 °F 43.5 °F 43.0 °F 88% 30.14 in 3.0 mi South 5.8 mph - N/A   Clear
6:35 AM 46.4 °F 44.3 °F 43.0 °F 88% 30.14 in 3.0 mi SSE 4.6 mph - N/A   Clear
6:55 AM 46.4 °F 42.9 °F 43.2 °F 88% 30.13 in 2.5 mi SSE 6.9 mph - N/A   Clear
7:15 AM 47.5 °F - 43.7 °F 87% 30.14 in 2.5 mi South 5.8 mph - N/A   Clear
7:35 AM 48.2 °F - 43.7 °F 84% 30.14 in 2.5 mi South 5.8 mph - N/A   Clear
7:55 AM 49.6 °F - 44.4 °F 82% 30.14 in 3.0 mi South 6.9 mph - N/A   Haze
8:15 AM 51.6 °F - 45.3 °F 79% 30.14 in 4.0 mi South 9.2 mph - N/A   Haze
8:35 AM 52.3 °F - 45.5 °F 78% 30.13 in 4.0 mi South 12.7 mph 16.1 mph N/A   Haze
8:55 AM 53.1 °F - 45.1 °F 74% 30.13 in 4.0 mi South 12.7 mph 19.6 mph N/A   Haze
9:15 AM 54.0 °F - 45.1 °F 72% 30.12 in 4.0 mi South 11.5 mph - N/A   Haze
9:35 AM 55.8 °F - 45.1 °F 67% 30.12 in 5.0 mi South 13.8 mph 18.4 mph N/A   Haze
9:55 AM 56.5 °F - 45.0 °F 65% 30.12 in 5.0 mi South 16.1 mph 23.0 mph N/A   Haze
10:15 AM 57.4 °F - 45.1 °F 64% 30.12 in 5.0 mi South 12.7 mph 18.4 mph N/A   Haze
10:35 AM 57.2 °F - 44.8 °F 63% 30.11 in 5.0 mi South 16.1 mph 21.9 mph N/A   Haze
10:55 AM 58.3 °F - 44.6 °F 60% 30.10 in 7.0 mi South 11.5 mph 21.9 mph N/A   Clear
11:15 AM 59.2 °F - 45.0 °F 59% 30.09 in 7.0 mi South 18.4 mph 24.2 mph N/A   Clear
11:35 AM 60.1 °F - 44.1 °F 55% 30.08 in 10.0 mi South 17.3 mph 20.7 mph N/A   Clear
11:55 AM 61.0 °F - 43.7 °F 53% 30.08 in 10.0 mi South 13.8 mph - N/A   Clear
12:15 PM 61.5 °F - 43.3 °F 51% 30.07 in 10.0 mi SSW 20.7 mph - N/A   Clear
12:35 PM 62.1 °F - 43.0 °F 50% 30.05 in 10.0 mi South 18.4 mph 25.3 mph N/A   Clear
12:55 PM 63.5 °F - 43.3 °F 48% 30.05 in 10.0 mi South 11.5 mph - N/A   Clear
1:15 PM 63.7 °F - 42.1 °F 45% 30.03 in 10.0 mi South 15.0 mph 21.9 mph N/A   Clear
1:35 PM 63.0 °F - 41.5 °F 45% 30.03 in 10.0 mi South 13.8 mph 17.3 mph N/A   Clear
1:55 PM 63.9 °F - 41.5 °F 44% 30.01 in 10.0 mi South 17.3 mph 20.7 mph N/A   Clear
2:15 PM 64.8 °F - 41.2 °F 42% 30.01 in 10.0 mi South 12.7 mph 18.4 mph N/A   Clear
2:35 PM 64.8 °F - 39.6 °F 40% 30.01 in 10.0 mi South 18.4 mph 21.9 mph N/A   Clear
2:55 PM 64.4 °F - 41.0 °F 42% 30.00 in 10.0 mi South 17.3 mph 20.7 mph N/A   Clear
3:15 PM 63.5 °F - 40.3 °F 43% 30.00 in 10.0 mi South 15.0 mph 19.6 mph N/A   Clear
3:35 PM 62.6 °F - 41.0 °F 45% 30.00 in 10.0 mi South 10.4 mph - N/A   Clear
3:55 PM 62.6 °F - 41.0 °F 45% 30.00 in 10.0 mi South 9.2 mph - N/A   Clear
4:15 PM 61.9 °F - 41.2 °F 47% 30.00 in 10.0 mi South 10.4 mph - N/A   Clear
4:35 PM 61.5 °F - 40.6 °F 46% 30.01 in 10.0 mi South 11.5 mph - N/A   Clear
4:55 PM 60.4 °F - 41.0 °F 49% 30.00 in 10.0 mi South 10.4 mph - N/A   Clear
5:15 PM 60.4 °F - 40.5 °F 48% 30.00 in 10.0 mi South 10.4 mph - N/A   Clear
5:35 PM 60.1 °F - 40.5 °F 48% 29.99 in 10.0 mi South 12.7 mph 16.1 mph N/A   Clear
5:55 PM 59.9 °F - 41.9 °F 51% 29.99 in 10.0 mi South 17.3 mph 24.2 mph N/A   Clear
6:15 PM 59.0 °F - 42.8 °F 55% 29.99 in 10.0 mi South 17.3 mph 21.9 mph N/A   Scattered Clouds
6:35 PM 59.7 °F - 42.4 °F 53% 29.99 in 10.0 mi South 17.3 mph 20.7 mph N/A   Overcast
6:55 PM 59.7 °F - 43.0 °F 54% 30.00 in 10.0 mi SSW 13.8 mph - N/A   Overcast
7:15 PM 59.9 °F - 43.5 °F 55% 29.99 in 10.0 mi SSW 16.1 mph 20.7 mph N/A   Overcast
7:35 PM 59.9 °F - 43.7 °F 55% 29.99 in 10.0 mi South 15.0 mph 20.7 mph N/A Thunderstorm Thunderstorm
7:55 PM 60.1 °F - 43.9 °F 55% 30.00 in 10.0 mi SSW 18.4 mph 24.2 mph N/A Thunderstorm Thunderstorm
8:15 PM 57.2 °F - 46.9 °F 69% 30.02 in 5.0 mi SSW 11.5 mph 21.9 mph 0.09 in Rain , Thunderstorm Thunderstorms and Rain
8:35 PM 56.8 °F - 47.3 °F 70% 30.02 in 10.0 mi SSW 9.2 mph - 0.09 in Rain Light Rain
8:55 PM 56.3 °F - 47.8 °F 73% 30.03 in 10.0 mi SW 9.2 mph - 0.09 in Rain Rain
9:15 PM 55.9 °F - 48.7 °F 77% 30.03 in 7.0 mi SW 15.0 mph 20.7 mph 0.01 in Rain Light Rain
9:35 PM 56.3 °F - 49.1 °F 77% 30.03 in 7.0 mi SW 13.8 mph 20.7 mph 0.03 in Rain Rain
9:55 PM 56.1 °F - 50.0 °F 80% 30.03 in 7.0 mi SW 15.0 mph 21.9 mph 0.05 in Rain Light Rain
10:15 PM 55.8 °F - 51.3 °F 85% 30.03 in 7.0 mi SW 13.8 mph - N/A Rain Rain
10:35 PM 55.8 °F - 51.3 °F 85% 30.03 in 7.0 mi SW 13.8 mph 18.4 mph N/A Rain Light Rain
10:55 PM 55.8 °F - 51.4 °F 85% 30.03 in 7.0 mi SW 16.1 mph - N/A   Overcast
11:15 PM 55.9 °F - 51.4 °F 85% 30.03 in 10.0 mi SW 16.1 mph 21.9 mph N/A Rain Light Rain
11:35 PM 56.3 °F - 51.8 °F 85% 30.03 in 10.0 mi SW 15.0 mph 25.3 mph N/A   Overcast
11:55 PM 56.5 °F - 51.8 °F 84% 30.03 in 10.0 mi WSW 15.0 mph 19.6 mph N/A Rain Rain